When you browse on this site, cookies collect data to enhance your experience and personalize the content and advertising you see.
Visit our Privacy Policy to learn more. By continuing to use the site, you agree to this use of cookies and data.
  • In Spain
  • List of Countries
  • For 7 days
  • Water Temperature
  • Weather Map
  • Weather Widgets
  • user-avatar
    Login

    Hourly Weather Perth

    Today, 30 March, Monday

    Time Temperature Precipitation Wind Pressure Humidity
    00:00 +2°C° 0 mm 2 mps 780 mmHg 90%
    01:00 +2°C° 0 mm 2 mps 780 mmHg 90%
    02:00 +3°C° 0 mm 2 mps 779 mmHg 89%
    03:00 +3°C° 0 mm 2 mps 779 mmHg 89%
    04:00 +3°C° 0 mm 2 mps 779 mmHg 89%
    05:00 +3°C° 0 mm 2 mps 779 mmHg 90%
    06:00 +3°C° 0 mm 2 mps 779 mmHg 89%
    07:00 +4°C° 0 mm 3 mps 778 mmHg 83%
    08:00 +7°C° 0 mm 3 mps 778 mmHg 76%
    09:00 +8°C° 0 mm 3 mps 778 mmHg 70%
    10:00 +8°C° 0 mm 4 mps 778 mmHg 68%
    11:00 +8°C° 0 mm 4 mps 777 mmHg 67%
    12:00 +10°C° 0 mm 4 mps 777 mmHg 65%
    13:00 +10°C° 0 mm 4 mps 777 mmHg 64%
    14:00 +10°C° 0 mm 4 mps 777 mmHg 63%
    15:00 +10°C° 0 mm 4 mps 777 mmHg 62%
    16:00 +10°C° 0 mm 3 mps 776 mmHg 65%
    17:00 +9°C° 0 mm 2 mps 776 mmHg 69%
    18:00 +9°C° 0 mm 1 mps 776 mmHg 73%
    19:00 +9°C° 0 mm 1 mps 776 mmHg 75%
    20:00 +8°C° 0 mm 1 mps 777 mmHg 77%
    21:00 +8°C° 0 mm 1 mps 777 mmHg 79%
    22:00 +7°C° 0 mm 1 mps 777 mmHg 80%
    23:00 +6°C° 0 mm 1 mps 777 mmHg 81%

    Tomorrow, 31 March, Tuesday

    Time Temperature Precipitation Wind Pressure Humidity
    00:00 +6°C° 0 mm 1 mps 777 mmHg 82%
    01:00 +5°C° 0 mm 1 mps 777 mmHg 84%
    02:00 +4°C° 0 mm 1 mps 776 mmHg 85%
    03:00 +4°C° 0 mm 1 mps 776 mmHg 87%
    04:00 +4°C° 0 mm 1 mps 776 mmHg 87%
    05:00 +3°C° 0 mm 1 mps 776 mmHg 87%
    06:00 +3°C° 0 mm 1 mps 776 mmHg 88%
    07:00 +5°C° 0 mm 1 mps 776 mmHg 82%
    08:00 +6°C° 0 mm 1 mps 775 mmHg 76%
    09:00 +8°C° 0 mm 1 mps 775 mmHg 71%
    10:00 +9°C° 0 mm 1 mps 775 mmHg 67%
    11:00 +10°C° 0 mm 1 mps 775 mmHg 62%
    12:00 +11°C° 0 mm 1 mps 774 mmHg 58%
    13:00 +10°C° 0 mm 2 mps 774 mmHg 57%
    14:00 +10°C° 0 mm 2 mps 773 mmHg 55%
    15:00 +12°C° 0 mm 2 mps 773 mmHg 53%
    16:00 +10°C° 0 mm 2 mps 772 mmHg 57%
    17:00 +9°C° 0 mm 3 mps 772 mmHg 61%
    18:00 +8°C° 0 mm 3 mps 772 mmHg 65%
    19:00 +7°C° 0 mm 2 mps 771 mmHg 68%
    20:00 +6°C° 0 mm 2 mps 771 mmHg 70%
    21:00 +5°C° 0 mm 2 mps 771 mmHg 73%
    22:00 +5°C° 0 mm 2 mps 770 mmHg 73%
    23:00 +4°C° 0 mm 2 mps 770 mmHg 73%

    Day after tomorrow, 1 April, Wednesday

    Time Temperature Precipitation Wind Pressure Humidity
    00:00 +4°C° 0 mm 2 mps 769 mmHg 74%
    01:00 +4°C° 0 mm 2 mps 769 mmHg 75%
    02:00 +4°C° 0 mm 2 mps 768 mmHg 76%
    03:00 +3°C° 0 mm 2 mps 767 mmHg 77%
    04:00 +3°C° 0 mm 2 mps 767 mmHg 80%
    05:00 +3°C° 0 mm 2 mps 766 mmHg 83%
    06:00 +3°C° 0 mm 2 mps 766 mmHg 86%
    07:00 +3°C° 0 mm 3 mps 765 mmHg 82%
    08:00 +4°C° 0 mm 4 mps 765 mmHg 79%
    09:00 +6°C° 0 mm 4 mps 764 mmHg 75%
    10:00 +7°C° 0 mm 5 mps 764 mmHg 71%
    11:00 +8°C° 0 mm 6 mps 764 mmHg 68%
    12:00 +9°C° 0 mm 6 mps 764 mmHg 65%
    13:00 +9°C° 0 mm 6 mps 763 mmHg 67%
    14:00 +9°C° 0 mm 6 mps 762 mmHg 69%
    15:00 +8°C° 0 mm 6 mps 762 mmHg 72%
    16:00 +8°C° 0 mm 5 mps 761 mmHg 74%
    17:00 +8°C° 0 mm 5 mps 761 mmHg 76%
    18:00 +8°C° 0 mm 4 mps 761 mmHg 78%
    19:00 +6°C° 0 mm 4 mps 761 mmHg 82%
    20:00 +5°C° 0 mm 4 mps 761 mmHg 87%
    21:00 +4°C° 0 mm 3 mps 760 mmHg 91%
    22:00 +4°C° 0 mm 3 mps 760 mmHg 91%
    23:00 +4°C° 0 mm 3 mps 760 mmHg 92%

    2 April, Thursday

    Time Temperature Precipitation Wind Pressure Humidity
    00:00 +3°C° 0 mm 3 mps 759 mmHg 92%
    01:00 +3°C° 0 mm 4 mps 758 mmHg 91%
    02:00 +3°C° 0 mm 4 mps 757 mmHg 90%
    03:00 +3°C° 0 mm 5 mps 757 mmHg 89%
    04:00 +3°C° 0 mm 5 mps 756 mmHg 87%
    05:00 +3°C° 0 mm 6 mps 755 mmHg 85%
    06:00 +3°C° 0 mm 7 mps 754 mmHg 83%
    07:00 +4°C° 0 mm 8 mps 754 mmHg 78%
    08:00 +5°C° 0 mm 9 mps 753 mmHg 73%
    09:00 +6°C° 0 mm 10 mps 753 mmHg 67%
    10:00 +6°C° 0 mm 10 mps 753 mmHg 64%
    11:00 +6°C° 0 mm 10 mps 753 mmHg 60%
    12:00 +6°C° 0 mm 10 mps 753 mmHg 56%
    13:00 +6°C° 0 mm 10 mps 753 mmHg 54%
    14:00 +5°C° 0 mm 9 mps 754 mmHg 52%
    15:00 +5°C° 0 mm 9 mps 754 mmHg 50%
    16:00 +4°C° 0 mm 8 mps 755 mmHg 51%
    17:00 +3°C° 0 mm 7 mps 755 mmHg 53%
    18:00 +3°C° 0 mm 6 mps 756 mmHg 55%
    19:00 +2°C° 0 mm 5 mps 756 mmHg 59%
    20:00 +1°C° 0 mm 5 mps 757 mmHg 64%
    21:00 0°C° 0 mm 4 mps 757 mmHg 69%
    22:00 -1°C° 0 mm 4 mps 758 mmHg 71%
    23:00 0°C° 0 mm 3 mps 758 mmHg 74%

    3 April, Friday

    Time Temperature Precipitation Wind Pressure Humidity
    00:00 0°C° 0 mm 3 mps 759 mmHg 77%
    01:00 0°C° 0 mm 3 mps 759 mmHg 78%
    02:00 -1°C° 0 mm 3 mps 760 mmHg 78%
    03:00 -1°C° 0 mm 2 mps 760 mmHg 79%
    04:00 -1°C° 0 mm 2 mps 761 mmHg 79%
    05:00 -1°C° 0 mm 2 mps 761 mmHg 79%
    06:00 -1°C° 0 mm 2 mps 762 mmHg 79%
    07:00 +2°C° 0 mm 2 mps 762 mmHg 69%
    08:00 +4°C° 0 mm 2 mps 762 mmHg 59%
    09:00 +4°C° 0 mm 3 mps 763 mmHg 49%
    10:00 +6°C° 0 mm 2 mps 763 mmHg 44%
    11:00 +7°C° 0 mm 2 mps 763 mmHg 39%
    12:00 +8°C° 0 mm 2 mps 763 mmHg 34%
    13:00 +8°C° 0 mm 2 mps 764 mmHg 35%
    14:00 +9°C° 0 mm 2 mps 764 mmHg 36%
    15:00 +9°C° 0 mm 2 mps 764 mmHg 37%
    16:00 +8°C° 0 mm 2 mps 764 mmHg 46%
    17:00 +7°C° 0 mm 2 mps 764 mmHg 54%
    18:00 +6°C° 0 mm 2 mps 764 mmHg 62%
    19:00 +5°C° 0 mm 2 mps 764 mmHg 68%
    20:00 +4°C° 0 mm 2 mps 764 mmHg 74%
    21:00 +4°C° 0 mm 1 mps 764 mmHg 80%
    22:00 +3°C° 0 mm 1 mps 764 mmHg 82%
    23:00 +3°C° 0 mm 1 mps 764 mmHg 84%

    4 April, Saturday

    Time Temperature Precipitation Wind Pressure Humidity
    00:00 +3°C° 0 mm 1 mps 764 mmHg 86%
    01:00 +3°C° 0 mm 1 mps 764 mmHg 88%
    02:00 +2°C° 0 mm 1 mps 763 mmHg 89%
    03:00 +2°C° 0 mm 1 mps 763 mmHg 90%
    04:00 +2°C° 0 mm 1 mps 763 mmHg 89%
    05:00 +2°C° 0 mm 1 mps 763 mmHg 89%
    06:00 +2°C° 0 mm 1 mps 763 mmHg 89%
    07:00 +2°C° 0 mm 2 mps 762 mmHg 84%
    08:00 +3°C° 0 mm 3 mps 762 mmHg 79%
    09:00 +4°C° 0 mm 3 mps 762 mmHg 74%
    10:00 +5°C° 0 mm 4 mps 762 mmHg 71%
    11:00 +5°C° 0 mm 4 mps 761 mmHg 69%
    12:00 +6°C° 0 mm 5 mps 761 mmHg 67%
    13:00 +6°C° 0 mm 5 mps 761 mmHg 68%
    14:00 +7°C° 0 mm 5 mps 761 mmHg 69%
    15:00 +7°C° 0 mm 5 mps 760 mmHg 70%
    16:00 +6°C° 0.1 mm 4 mps 760 mmHg 75%
    17:00 +6°C° 0.1 mm 4 mps 760 mmHg 80%
    18:00 +7°C° 0.1 mm 3 mps 760 mmHg 85%
    19:00 +5°C° 0 mm 3 mps 760 mmHg 86%
    20:00 +5°C° 0 mm 3 mps 760 mmHg 87%
    21:00 +5°C° 0 mm 3 mps 760 mmHg 87%
    22:00 +5°C° 0.3 mm 3 mps 760 mmHg 89%
    23:00 +5°C° 0.3 mm 3 mps 760 mmHg 91%
    Show more